Location: Newark
(25.4297°S, 49.2719°W)
Time: 12:16:55
(UTC+00:00)

Tiros 1 - Pass Details

Date: 16 November 2019
Orbit: 630 x 664 km, 48.4° (Epoch: 06 December)

Event Time Altitude Azimuth Distance (km) Brightness Sun altitude
Exits shadow 06:44:30 16° 237° (WSW) 1,736 9.1 -20.2°
Maximum altitude 06:46:05 18° 213° (SSW) 1,616 9.2 -19.9°
Drops below altitude 10° 06:49:25 10° 169° (S) 2,096 10.4 -19.2°
Sets 06:52:28 0° 150° (SSE) 3,009 11.7 -18.7°
